Location: Killam
(52.7910°N, 111.8608°W)
Time: 02:26:30
(UTC+00:00)

A-11 Canister half - Visible Passes

Search period start: 07 February 2026 00:00
Search period end: 17 February 2026 00:00
Orbit: 1526 x 1682 km, 47.3° (Epoch: 6 February)

Date Brightness Start Highest point End Pass type
(mag) Time Alt. Az. Time Alt. Az. Time Alt. Az.
7 Feb 10.3 01:17:32 10° S 01:23:17 18° SE 01:28:45 11° E visible
7 Feb 9.2 03:17:43 10° SW 03:26:18 44° SSE 03:27:03 44° SE visible
7 Feb 10.1 05:21:15 10° WSW 05:25:22 30° WSW 05:25:22 30° WSW visible
8 Feb 10.3 00:56:07 10° SSE 01:01:34 17° SE 01:07:02 10° E visible
8 Feb 9.3 02:56:00 10° SW 03:04:32 43° SSE 03:06:41 38° ESE visible
8 Feb 9.7 04:59:26 10° WSW 05:04:59 40° WSW 05:04:59 40° WSW visible
9 Feb 9.4 02:34:17 10° SW 02:42:46 42° SSE 02:46:16 31° ESE visible
9 Feb 9.3 04:37:39 10° WSW 04:44:34 51° SW 04:44:34 51° SW visible
9 Feb 10.9 06:42:02 10° W 06:42:52 13° W 06:42:52 13° W visible
10 Feb 9.5 02:12:34 10° SW 02:21:00 41° SSE 02:25:48 24° E visible
10 Feb 9.0 04:15:52 10° WSW 04:24:06 60° SSW 04:24:06 60° SSW visible
10 Feb 10.6 06:20:14 10° W 06:22:24 19° W 06:22:24 19° W visible
11 Feb 9.5 01:50:53 10° SSW 01:59:14 39° SSE 02:05:18 19° E visible
11 Feb 8.9 03:54:04 10° WSW 04:03:09 62° S 04:03:36 61° SSE visible
11 Feb 10.3 05:58:26 10° W 06:01:53 26° W 06:01:53 26° W visible
12 Feb 9.6 01:29:11 10° SSW 01:37:29 38° SSE 01:44:46 14° E visible
12 Feb 8.9 03:32:16 10° WSW 03:41:22 61° S 03:43:04 54° SE visible
12 Feb 10.0 05:36:37 10° W 05:41:21 33° WSW 05:41:21 33° WSW visible
13 Feb 9.7 01:07:30 10° SSW 01:15:43 37° SE 01:23:56 10° E visible
13 Feb 9.0 03:10:29 10° WSW 03:19:34 61° S 03:22:31 44° ESE visible
13 Feb 9.6 05:14:48 10° W 05:20:48 42° WSW 05:20:48 42° WSW visible
14 Feb 9.1 02:48:42 10° WSW 02:57:46 60° SSE 03:01:56 35° ESE visible
14 Feb 9.3 04:53:00 10° W 05:00:14 52° SW 05:00:14 52° SW visible
14 Feb 11.0 06:57:45 10° W 06:58:31 13° W 06:58:31 13° W visible
15 Feb 9.1 02:26:55 10° WSW 02:35:58 59° SSE 02:41:21 27° E visible
15 Feb 9.1 04:31:12 10° W 04:39:38 59° SSW 04:39:38 59° SSW visible
15 Feb 10.7 06:35:54 10° W 06:37:55 17° W 06:37:55 17° W visible
16 Feb 9.2 02:05:08 10° WSW 02:14:10 58° SSE 02:20:45 20° E visible
16 Feb 9.0 04:09:23 10° W 04:18:27 61° S 04:19:03 60° S visible
16 Feb 10.5 06:14:04 10° W 06:17:19 22° W 06:17:19 22° W visible
